Location: Pescara
(42.4670°N, 14.2170°E)
Time: 12:26:59
(UTC+02:00)

ISS - Visible Passes

Search period start: 11 May 2021 00:00
Search period end: 21 May 2021 00:00
Orbit: 418 x 421 km, 51.6° (Epoch: 11 May)

Date Brightness Start Highest point End Pass type
(mag) Time Alt. Az. Time Alt. Az. Time Alt. Az.
11 May -1.1 02:04:21 19° N 02:04:21 19° N 02:06:42 10° NE visible
11 May -1.0 03:39:21 10° NW 03:41:53 19° N 03:44:25 10° ENE visible
12 May -0.7 01:18:16 16° NNE 01:18:16 16° NNE 01:19:17 10° NE visible
12 May -0.8 02:51:52 10° NW 02:54:14 17° N 02:56:37 10° NE visible
12 May -2.1 04:28:33 10° NW 04:31:44 37° NNE 04:34:55 10° E visible
13 May -0.8 02:05:02 13° NNW 02:06:34 17° N 02:08:53 10° NE visible
13 May -1.6 03:41:13 10° NW 03:44:11 28° NNE 03:47:09 10° E visible
14 May -0.9 01:18:38 17° N 01:18:54 17° N 01:21:16 10° NE visible
14 May -1.2 02:53:50 10° NW 02:56:35 22° NNE 02:59:20 10° ENE visible
14 May -3.8 04:30:23 10° NW 04:33:46 87° NNE 04:37:08 10° SE visible
14 May -2.4 21:14:46 10° S 21:17:18 20° SE 21:19:52 10° E visible
14 May -3.0 22:50:34 10° WSW 22:53:53 53° NNW 22:55:37 24° NE visible
15 May -1.0 00:28:44 10° WNW 00:31:15 19° N 00:33:45 10° NE visible
15 May -0.9 02:06:25 10° NW 02:08:57 19° N 02:11:28 10° ENE visible
15 May -3.0 03:42:58 10° NW 03:46:18 55° NNE 03:49:37 10° ESE visible
15 May -3.8 22:03:03 10° WSW 22:06:25 85° NNW 22:09:48 10° NE visible
15 May -1.2 23:40:53 10° WNW 23:43:37 22° NNW 23:46:20 10° NE visible
16 May -0.8 01:18:55 10° NW 01:21:17 17° N 01:23:40 10° NE visible
16 May -2.2 02:55:37 10° NW 02:58:47 37° NNE 03:01:58 10° E visible
16 May -3.1 04:32:30 10° WNW 04:35:34 32° SW 04:38:37 10° SSE visible
16 May -3.7 21:15:42 10° SW 21:19:00 58° SE 21:22:19 10° ENE visible
16 May -1.6 22:53:03 10° W 22:56:00 27° NNW 22:58:57 10° NE visible
17 May -0.7 00:31:18 10° NW 00:33:37 17° N 00:35:56 10° NE visible
17 May -1.7 02:08:15 10° NW 02:11:14 28° NNE 02:14:12 10° E visible
17 May -3.8 03:45:03 11° WNW 03:48:13 55° SW 03:51:31 10° SE visible
17 May -2.1 22:05:17 10° W 22:08:26 36° NNW 22:11:36 10° NE visible
17 May -0.8 23:43:35 10° NW 23:45:56 17° N 23:48:18 10° NE visible
18 May -1.1 01:20:52 10° NW 01:22:56 21° N 01:22:56 21° N visible
18 May -2.9 21:17:37 10° WSW 21:20:55 53° NNW 21:24:13 10° NE visible
18 May -0.9 22:55:46 10° WNW 22:58:17 19° N 23:00:47 10° NE visible
19 May -1.1 00:33:27 10° NW 00:35:59 19° N 00:36:31 19° NNE visible
19 May -1.1 22:07:55 10° WNW 22:10:38 22° NNW 22:13:20 10° NE visible
19 May -0.9 23:45:57 10° NW 23:48:19 17° N 23:50:21 11° NE visible
20 May -0.9 01:22:37 10° NW 01:23:17 14° NW 01:23:17 14° NW visible
20 May -1.5 21:20:05 10° W 21:23:01 27° NNW 21:25:58 10° NE visible
20 May -0.8 22:58:19 10° NW 23:00:38 17° N 23:02:56 10° NE visible
